Regional Weather Roundup
Issued by NWS

Home | Current Version | Previous Version | Text Only | Print | Product List | Glossary On
Versions: 1 2 3 4 5 6 7 8 9 10 11 12 13 14 15 16 17 18 19 20 21 22 23 24 25 26 27 28 29 30 31 32 33 34 35 36 37 38 39 40 41 42 43 44 45 46 47 48 49 50
000
ASUS44 KFWD 110110
RWRTX
NORTH TEXAS HOURLY WEATHER ROUNDUP
NATIONAL WEATHER SERVICE FORT WORTH TX
700 PM CST WED FEB 10 2016

NOTE: "FAIR" INDICATES FEW OR NO CLOUDS BELOW 12,000 FEET WITH NO
SIGNIFICANT WEATHER AND/OR OBSTRUCTIONS TO VISIBILITY.

TXZ118-119-110200-
DALLAS/FORT WORTH METROPLEX

CITY           SKY/WX    TMP DP  RH WIND       PRES   REMARKS
DFW AIRPORT    CLEAR     62  30  29 S9        30.06F
DALLAS LOVE    CLEAR     65  31  28 S7        30.07F
FTW MEACHAM    CLEAR     66  31  27 S9        30.07S
DAL-EXECUTIVE  CLEAR     66  32  28 S6        30.07F
FTW-ALLIANCE   CLEAR     63  31  30 S6        30.06S
FTW-NAS-JRB    CLEAR     64  29  26 S9        30.07F
FTW-SPINKS     CLEAR     64  32  29 S7        30.10S
ARLINGTON      CLEAR     68  32  26 S7        30.08F
ADDISON        CLEAR     68  32  26 S8        30.08F
MESQUITE       CLEAR     57  34  41 SE9       30.09F
LANCASTER      CLEAR     62  32  31 S6        30.10S
$$

TXZ091>094-102>105-117-120-121-131>134-110200-
NORTH CENTRAL TEXAS

CITY           SKY/WX    TMP DP  RH WIND       PRES   REMARKS
SHRMAN/DENISON CLEAR     60  34  37 S13       30.06S
GAINESVILLE    CLEAR     60  31  32 S6        30.07S
BOWIE          CLEAR     64  27  25 S6        30.04F
BRIDGEPORT     CLEAR     67  33  28 SW6       30.07S
DECATUR        CLEAR     68  26  21 SW7       30.07R
DENTON         CLEAR     59  33  37 S9        30.06S
MCKINNEY       CLEAR     54  35  48 SE6       30.07S
GREENVILLE     CLEAR     55  34  44 S8        30.09F
ROCKWALL       CLEAR     62  36  37 S10G18    30.07F
TERRELL        CLEAR     59  35  40 S9        30.10F
WAXAHACHIE     CLEAR     60  37  42 S9        30.11S
CLEBURNE       CLEAR     64  32  29 CALM      30.12S
GRANBURY       CLEAR     66  31  27 S6        30.10S
$$

TXZ083>090-098>101-113>116-127>130-139>142-154-155-110200-
WESTERN NORTH TEXAS

CITY           SKY/WX    TMP DP  RH WIND       PRES   REMARKS
WICHITA FALLS  CLEAR     64  27  24 SW12      30.00S
WF-KICKAPOO    CLEAR     70  25  18 SW9G20    30.02F
VERNON         CLEAR     67  19  16 SW10      30.00S
ABILENE        CLEAR     64  24  21 S7        30.12S
ABILENE-DYESS  CLEAR     62  24  23 S7        30.11S
BRECKENRIDGE   CLEAR     65  25  22 SW9       30.08S
GRAHAM         CLEAR     67  30  25 S6        30.05S
MINERAL WELLS  CLEAR     65  27  23 S9        30.06F
STEPHENVILLE   CLEAR     66  28  23 S3        30.14S
COMANCHE       CLEAR     66  29  24 SW6       30.14S
BROWNWOOD      CLEAR     66  25  20 S7        30.14S
COLEMAN        CLEAR     66  24  20 SW7       30.14F
$$

TXZ143>147-156>162-174-175-110200-
CENTRAL TEXAS

CITY           SKY/WX    TMP DP  RH WIND       PRES   REMARKS
WACO           CLEAR     58  38  47 S12       30.13F
WACO-TSTC      CLEAR     63  34  34 S13       30.14F
WACO-MCGREGOR  CLEAR     64  36  35 S9        30.14F
HILLSBORO      CLEAR     60  32  34 S8        30.12S
CORSICANA      CLEAR     61  36  39 S8        30.14F
MEXIA          CLEAR     61  35  37 S10G17    30.14F
HEARNE         CLEAR     60  36  39 S7        30.20S
CAMERON        CLEAR     60  36  40 S6        30.18F
TEMPLE         CLEAR     61  36  39 S10       30.17S
KILLEEN        CLEAR     57  34  42 S7        30.15F
KILLEEN-SKYLRK CLEAR     64  36  35 S10       30.16F
FORT HOOD      CLEAR     64  33  31 S9        30.14F
GATESVILLE     CLEAR     63  34  34 CALM      30.16F
HAMILTON       CLEAR     59  33  37 S10       30.15S
LAMPASAS       CLEAR     63  34  34 CALM      30.16S
$$

TXZ095>097-106>112-122>126-135>138-148>153-164>167-110200-
EAST TEXAS

CITY           SKY/WX    TMP DP  RH WIND       PRES   REMARKS
PARIS          CLEAR     54  32  43 S12       30.08S
SULPHUR SPRNGS CLEAR     59  34  38 S6        30.11F
MOUNT PLEASANT CLEAR     58  32  37 SW7       30.11F
GILMER           N/A    N/A N/A N/A MISG        N/A
MINEOLA        CLEAR     59  34  38 CALM      30.13S
TYLER          CLEAR     57  34  41 S8        30.13S
LONGVIEW       CLEAR     53  34  48 S8        30.12F
MARSHALL       CLEAR     57  29  34 SW8       30.14F
ATHENS         CLEAR     59  34  38 S3        30.12F
PALESTINE      CLEAR     61  34  35 S5        30.17S
JACKSONVILLE   CLEAR     60  33  35 SW6       30.17S
HENDERSON      CLEAR     58  32  38 CALM      30.15S
CENTER         FAIR      55  34  44 SE6       30.15F
NACOGDOCHES    CLEAR     55  34  44 S5        30.17S
LUFKIN         CLEAR     57  33  40 S6        30.18F
$$

SUPPLEMENTAL OBSERVATIONS (CENTRAL)

CITY           SKY/WX    TMP DP  RH WIND       PRES   REMARKS
CADDO GRASSLND   N/A     57  32  38 S5          N/A
PAT MAYSE LAKE   N/A     59  32  36 SE8         N/A
MCGREGOR         N/A     61  36  39 S7          N/A
TEMPLE           N/A     61  32  33 S9          N/A
$$

SUPPLEMENTAL OBSERVATIONS (WEST)

CITY           SKY/WX    TMP DP  RH WIND       PRES   REMARKS
MILLERS CREEK    N/A     64  28  25 SW9         N/A
POSSUM KINGDOM   N/A     70  25  18 SW10        N/A
LBJ GRASSLAND    N/A     66  27  22 S6          N/A
GRANBURY         N/A     63  30  29 S6          N/A
HAMBY            N/A     59  27  29 S7          N/A
IVIE RESERVOIR   N/A     64  23  20 S8          N/A
COLORADO BEND    N/A     63  30  29 SW3         N/A
$$

SUPPLEMENTAL OBSERVATIONS (EAST)

CITY           SKY/WX    TMP DP  RH WIND       PRES   REMARKS
CLARKSVILLE      N/A     55  34  44 S8          N/A
GILMER           N/A     61  32  33 SW5         N/A
HENDERSON        N/A     57  32  38 S7          N/A
LUFKIN           N/A     57  36  44 MISG        N/A
N SABINE NF      N/A     52  34  50 MISG        N/A
S SABINE NF      N/A     48  34  57 S1          N/A
$$

SUPPLEMENTAL OBSERVATIONS ARE A COLLECTION OF AUTOMATED INSTRUMENTS
THAT ARE MAINTAINED BY A VARIETY OF FEDERAL AND STATE AGENCIES.
CERTAIN ELEMENTS...SUCH AS HUMIDITY VALUES AND SUSTAINED WIND
SPEEDS...MAY BE APPROXIMATED.




USA.gov is the U.S. government's official web portal to all federal, state and local government web resources and services.